GW5426 Weather Reports


Display with metric or nautical units.
time (UTC)temp
F
wind
direction
speed
MPH
gust
MPH
rain 1hr
in
rain 24hr
in
rain mn
in
humidity
%
barometer
mb
20260505111824 46 312 4.0 10.0 0.00 0.00 0.00 78 1002.2
20260505110338 45 253 4.0 9.0 0.00 0.00 0.00 83 1001.7
20260505101818 44 263 1.0 3.0 0.00 0.00 0.00 82 1001.2
20260505100336 45 230 0.0 3.0 0.00 0.00 0.00 81 1000.7
20260505094830 44 335 2.0 4.0 0.00 0.00 0.00 83 1000.6
20260505093324 44 281 0.0 3.0 0.00 0.00 0.00 82 1000.0
20260505091835 45 263 2.0 4.0 0.00 0.00 0.00 80 999.9
20260505090334 46 129 0.0 3.0 0.00 0.00 0.00 77 999.6
20260505084834 47 252 1.0 5.0 0.00 0.00 0.00 73 999.1
20260505083332 49 312 3.0 7.0 0.00 0.00 0.00 69 998.6
20260505081836 50 136 1.0 7.0 0.00 0.00 0.00 66 998.6
20260505080335 50 139 1.0 6.0 0.00 0.00 0.00 65 998.2
20260505074845 50 117 3.0 7.0 0.00 0.00 0.00 64 998.3
20260505073342 51 285 4.0 11.0 0.00 0.00 0.00 62 998.1
20260505071828 52 276 7.0 15.0 0.00 0.00 0.00 60 998.0
20260505070316 52 288 5.0 12.0 0.00 0.00 0.00 60 998.2
20260505064825 52 310 5.0 16.0 0.00 0.00 0.00 62 997.9
20260505063340 51 292 2.0 7.0 0.00 0.00 0.00 72 997.5
20260505061848 51 244 0.0 3.0 0.00 0.00 0.00 82 997.8
20260505060404 51 237 0.0 4.0 0.00 0.00 0.00 83 997.4
20260505054846 52 201 1.0 3.0 0.00 0.00 0.00 82 997.5
20260505053342 52 271 1.0 4.0 0.00 0.00 0.00 82 997.4
20260505051825 52 107 0.0 2.0 0.00 0.00 0.00 82 997.2
20260505050322 53 217 0.0 2.0 0.00 0.00 0.00 82 996.9
20260505034844 55 171 2.0 6.0 0.00 0.00 0.00 77 996.4
20260505033333 56 227 4.0 16.0 0.00 0.00 0.00 75 996.7
20260505031821 59 191 6.0 15.0 0.00 0.00 0.00 72 996.0
20260505030337 62 263 2.0 14.0 0.00 0.00 0.00 70 995.6
20260505024816 63 225 6.0 14.0 0.00 0.00 0.00 67 994.7
20260505023333 63 214 8.0 19.0 0.00 0.00 0.00 65 994.6
20260505021822 63 202 6.0 24.0 0.00 0.00 0.00 65 994.4
20260505020317 63 206 8.0 23.0 0.00 0.00 0.00 65 994.6
20260505014823 63 232 10.0 19.0 0.00 0.00 0.00 65 994.1
20260505013339 64 240 9.0 22.0 0.00 0.00 0.00 64 994.0
20260505011829 64 345 7.0 17.0 0.00 0.00 0.00 66 994.2
20260505010347 67 238 13.0 27.0 0.00 0.00 0.00 63 993.6
20260505004828 68 162 10.0 18.0 0.00 0.00 0.00 62 993.6
20260505003326 69 267 7.0 22.0 0.00 0.00 0.00 60 993.6
20260505001831 70 144 7.0 17.0 0.00 0.00 0.00 57 993.4
20260505000334 72 168 8.0 19.0 0.00 0.00 0.00 48 993.4
20260504234842 74 188 5.0 12.0 0.00 0.00 0.00 42 993.2
20260504233332 75 216 3.0 10.0 0.00 0.00 0.00 41 993.4
20260504231844 76 217 3.0 10.0 0.00 0.00 0.00 41 993.5
20260504230340 75 193 3.0 8.0 0.00 0.00 0.00 42 993.9
20260504224818 74 158 4.0 11.0 0.00 0.00 0.00 43 994.2
20260504223333 75 162 5.0 14.0 0.00 0.00 0.00 42 994.5
20260504221822 75 139 6.0 12.0 0.00 0.00 0.00 42 994.8
20260504220316 74 169 7.0 14.0 0.00 0.00 0.00 45 994.9
20260504214823 75 176 6.0 13.0 0.00 0.00 0.00 44 995.2
20260504213318 74 200 7.0 16.0 0.00 0.00 0.00 45 995.3
20260504211848 74 270 7.0 14.0 0.00 0.00 0.00 47 995.4
20260504210345 74 190 7.0 16.0 0.00 0.00 0.00 48 995.6
20260504204835 74 136 6.0 19.0 0.00 0.00 0.00 49 995.8
20260504203334 74 178 8.0 17.0 0.00 0.00 0.00 51 996.0
20260504201826 73 222 8.0 17.0 0.00 0.00 0.00 54 996.2
20260504200323 72 6 9.0 18.0 0.00 0.00 0.00 55 996.4
20260504194823 71 220 8.0 19.0 0.00 0.00 0.00 56 996.7
20260504193344 71 212 8.0 19.0 0.00 0.00 0.00 54 996.8
20260504191834 71 176 10.0 21.0 0.00 0.00 0.00 53 996.8
20260504190334 71 117 7.0 15.0 0.00 0.00 0.00 53 997.0
20260504184816 71 117 9.0 20.0 0.00 0.00 0.00 52 997.1
20260504183333 70 204 10.0 22.0 0.00 0.00 0.00 51 997.1
20260504181842 71 218 7.0 19.0 0.00 0.00 0.00 51 996.9
20260504180338 69 252 11.0 20.0 0.00 0.00 0.00 51 997.1
20260504174822 69 167 9.0 20.0 0.00 0.00 0.00 51 997.3
20260504173338 69 212 8.0 18.0 0.00 0.00 0.00 52 997.4
20260504171850 69 330 7.0 16.0 0.00 0.00 0.00 50 997.5
20260504170323 68 185 7.0 17.0 0.00 0.00 0.00 49 997.7
20260504160323 65 281 7.0 17.0 0.00 0.00 0.00 56 998.3
20260504150319 61 239 6.0 15.0 0.00 0.00 0.00 62 999.1
20260504140322 59 178 7.0 12.0 0.00 0.00 0.00 66 999.7
20260504130324 57 214 7.0 15.0 0.00 0.00 0.00 69 1000.1